Regional Weather Roundup
Issued by NWS

Home | Current Version | Previous Version | Text Only | Print | Product List | Glossary On
Versions: 1 2 3 4 5 6 7 8 9 10 11 12 13 14 15 16 17 18 19 20 21 22 23 24 25 26 27 28 29 30 31 32 33 34 35 36 37 38 39 40 41 42 43 44 45 46 47 48 49 50
000
ASUS46 KSEW 221310
RWRWA

WASHINGTON REGIONAL WEATHER ROUNDUP
NATIONAL WEATHER SERVICE SEATTLE WA
600 AM PDT SUN OCT 22 2017

NOTE:"FAIR" INDICATES FEW OR NO CLOUDS BELOW 12,000 FEET WITH NO
SIGNIFICANT WEATHER AND/OR OBSTRUCTIONS TO VISIBILITY.

WAZ507-509-555>559-221400-
SEATTLE, TACOMA, EVERETT, AND VICINITY

CITY           SKY/WX    TMP DP  RH WIND       PRES   REMARKS
EVERETT        LGT RAIN  53  52  96 S6        29.88R
BOEING FIELD   PTCLDY    55  48  77 S10G18    29.90R
RENTON         CLEAR     55  50  83 S14G21    29.90R
SEATAC AIRPORT PTCLDY    54  49  83 S13G22    29.91R
JBLM-MCCHORD   CLEAR     50  50 100 S13       29.95R
PUYALLUP       CLOUDY    52  52 100 VRB7      29.97R
BREMERTON      CLEAR     50  48  93 SW15      29.90R
JBLM-FT LEWIS  PTCLDY    52  52 100 S14       29.95R
TACOMA NARROWS CLEAR     53  49  86 SW14G29   29.93R
$$

WAZ001-503-506-510-514-515-221400-
NORTH INTERIOR

CITY           SKY/WX    TMP DP  RH WIND       PRES   REMARKS
BELLINGHAM     PTCLDY    54  46  74 S6        29.82R
FRIDAY HARBOR  MOCLDY    52  47  83 MISG      29.83R
EASTSOUND      MOCLDY    54  48  82 S7        29.82R
PORT ANGELES   PTCLDY    49  45  86 SW7       29.87R
EDIZ HOOK      FAIR      51  45  78 SW20G26   29.86R
PORT TOWNSEND  FOG       45  45 100 CALM      29.87R VSB 1/4
NAS WHIDBEY    PTCLDY    54  44  69 W9        29.89R
ARLINGTON      PTCLDY    50  48  93 NE6       29.87R
BURLINGTON     MOCLDY    54  46  76 CALM      29.87R
$$

WAZ020-022-039-040-504-511-512-221400-
SOUTHWEST INTERIOR

CITY           SKY/WX    TMP DP  RH WIND       PRES   REMARKS
SHELTON        CLOUDY    53  51  93 SW12      29.92R
OLYMPIA        LGT RAIN  52  51  97 S7        29.96R
CHEHALIS       MOCLDY    50  50 100 S6        29.99R
KELSO          LGT RAIN  54  52  93 CALM      30.03R
VANCOUVER      CLOUDY    57  57 100 E3        30.04R
SCAPPOOSE, OR  CLOUDY    54  50  86 CALM      30.02R
PORTLAND, OR   CLOUDY    56  55  97 S5        30.05R
$$

WAZ021-516-517-221400-
WASHINGTON COAST

CITY           SKY/WX    TMP DP  RH WIND       PRES   REMARKS
FORKS          CLOUDY    53  49  86 SW12      29.89R
HOQUIAM        CLOUDY    55  53  93 SW17      29.95R
ASTORIA, OR    CLOUDY    56  53  90 SW9       30.01R
$$

WAZ019-023-024-040-567>569-221400-
CASCADE MOUNTAINS AND COLUMBIA GORGE

CITY           SKY/WX    TMP DP  RH WIND       PRES   REMARKS
STAMPEDE PASS  CLOUDY    39  37  92 SW15G36   29.87R
TROUTDALE, OR  CLOUDY    59  55  87 SW10      30.04R
HOOD RIVER, OR RAIN      54  50  87 NW8G23    29.98R
THE DALLES, OR LGT RAIN  55  54  96 CALM      29.94R
$$

WAZ026-027-041>044-520-521-221400-
EAST SLOPES

CITY           SKY/WX    TMP DP  RH WIND       PRES   REMARKS
OMAK           MOCLDY    41  41 100 SE9       29.77R
WENATCHEE      CLOUDY    38  37  97 S7        29.82R
ELLENSBURG     LGT RAIN  49  43  80 NW23G30   29.85R
YAKIMA         CLOUDY    47  45  93 W5        29.84R
SUNNYSIDE ARPT CLOUDY    59  48  68 SW16G23   29.84R
YAKIMA TC      FAIR      44  42  93 CALM      29.84R FOG
$$

WAZ028-034-035-221400-
COLUMBIA BASIN

CITY           SKY/WX    TMP DP  RH WIND       PRES   REMARKS
EPHRATA        CLOUDY    49  44  83 SW15      29.79R
MOSES LAKE     CLOUDY    50  48  93 S6        29.80R
PASCO            N/A    N/A N/A N/A MISG        N/A
RICHLAND ARPT  CLOUDY    61  54  77 SW24G36   29.85R
HERMISTON, OR  CLOUDY    60  53  77 SW22G30   29.90R
$$

WAZ036>038-221400-
NORTHEAST WASHINGTON

CITY           SKY/WX    TMP DP  RH WIND       PRES   REMARKS
SPOKANE GEIGER DRIZZLE   50  48  93 SW18G26   29.77R
SPOKANE FELTS  LGT RAIN  52  50  93 SW8       29.79R
FAIRCHILD AFB  LGT RAIN  50  50 100 SW16G33   29.77R
COEURDALENE,ID RAIN      50  48  93 SW13      29.79R
DEER PARK      CLOUDY    50  47  89 S18G28    29.74R
$$

WAZ029>033-221400-
SOUTHEAST WASHINGTON

CITY           SKY/WX    TMP DP  RH WIND       PRES   REMARKS
PULLMAN        RAIN      52  48  86 SW25G33   29.88R
LEWISTON, ID   CLOUDY    58  46  64 SW17G24   29.89R
WALLA WALLA    CLOUDY    60  50  69 SW22G36   29.91R
PENDLETON, OR  LGT RAIN  57  50  77 SW16      29.95R
$$



USA.gov is the U.S. government's official web portal to all federal, state and local government web resources and services.